This demonstration page uses our WeatherBlox Daily Observations layout. Learn more.

Hourly Observations for March 6, 2019

Temp ( °F °C ) Dew Point ( °F °C ) Humidity (%) Winds ( mph kmh ) Pressure ( in mb ) Visibility ( mi km ) Precip ( " mm )
12:15 am 00:15 Cloudy 4 -15.7 -1 -18.1 82 82 Calm 30.56 1035 10 16.09344 0 0
12:35 am 00:35 Cloudy 6 -14.3 2 -16.6 83 83 Calm 30.56 1035 10 16.09344 0 0
12:55 am 00:55 Cloudy 7 -13.7 3 -16.1 82 82 Calm 30.53 1034 10 16.09344 0 0
1:15 am 01:15 Cloudy 9 -12.7 5 -14.9 84 84 Calm 30.53 1034 10 16.09344 0 0
1:35 am 01:35 Cloudy 10 -12 6 -14.3 83 83 Calm 30.5 1033 10 16.09344 0 0
1:55 am 01:55 Cloudy 10 -12 6 -14.3 83 83 ENE 3 6 30.5 1033 10 16.09344 0 0
2:15 am 02:15 Cloudy 11 -11.8 6 -14.3 82 82 Calm 30.5 1033 10 16.09344 0 0
2:35 am 02:35 Cloudy 10 -12.3 5 -14.8 82 82 ENE 3 6 30.5 1033 10 16.09344 0 0
2:55 am 02:55 Mostly Cloudy 10 -12.5 5 -14.9 82 82 Calm 30.48 1032 10 16.09344 0 0
3:15 am 03:15 Partly Cloudy 8 -13.4 3 -16.1 80 80 Calm 30.48 1032 10 16.09344 0 0
3:35 am 03:35 Partly Cloudy 8 -13.5 3 -16 82 82 ENE 3 6 30.48 1032 10 16.09344 0 0
3:55 am 03:55 Partly Cloudy 7 -13.7 4 -15.8 84 84 ESE 3 6 30.45 1031 10 16.09344 0 0
4:15 am 04:15 Clear 7 -13.9 2 -16.4 82 82 ESE 3 6 30.45 1031 10 16.09344 0 0
4:35 am 04:35 Clear 9 -13 5 -15.1 84 84 Calm 30.45 1031 10 16.09344 0 0
4:55 am 04:55 Clear 6 -14.6 2 -16.7 84 84 NE 3 6 30.48 1032 10 16.09344 0 0
5:15 am 05:15 Clear 6 -14.2 2 -16.4 84 84 Calm 30.45 1031 10 16.09344 0 0
5:35 am 05:35 Clear 5 -14.9 1 -17.1 83 83 Calm 30.48 1032 10 16.09344 0 0
5:55 am 05:55 Clear 6 -14.2 3 -16.1 86 86 E 3 6 30.42 1030 10 16.09344 0 0
6:15 am 06:15 Clear 6 -14.5 2 -16.4 86 86 E 6 9 30.42 1030 10 16.09344 0 0
6:35 am 06:35 Clear 7 -14.1 3 -16.1 85 85 ESE 3 6 30.42 1030 10 16.09344 0 0
6:55 am 06:55 Clear 6 -14.3 2 -16.5 84 84 Calm 30.42 1030 10 16.09344 0 0
7:15 am 07:15 Sunny 5 -14.8 1 -17 83 83 E 3 6 30.39 1029 10 16.09344 0 0
7:35 am 07:35 Sunny 7 -13.8 4 -15.8 85 85 SE 3 6 30.39 1029 10 16.09344 0 0
7:55 am 07:55 Sunny 9 -12.9 4 -15.3 82 82 SE 3 6 30.42 1030 10 16.09344 0 0
8:15 am 08:15 Sunny 9 -13 4 -15.6 81 81 Calm 30.42 1030 10 16.09344 0 0
8:35 am 08:35 Sunny 10 -12.2 6 -14.7 82 82 ENE 3 6 30.42 1030 10 16.09344 0 0
8:55 am 08:55 Sunny 12 -11.1 7 -14 79 79 ENE 5 7 30.39 1029 10 16.09344 0 0
9:15 am 09:15 Mostly Cloudy 13 -10.5 8 -13.6 78 78 ENE 6 9 30.39 1029 10 16.09344 0 0
9:35 am 09:35 Cloudy 16 -9 9 -12.8 74 74 E 6 9 30.36 1028 10 16.09344 0 0
9:55 am 09:55 Cloudy 17 -8.1 9 -12.6 70 70 E 3 6 30.36 1028 10 16.09344 0 0
10:15 am 10:15 Cloudy 19 -7.5 10 -12.1 70 70 SE 5 7 30.33 1027 10 16.09344 0 0
10:35 am 10:35 Cloudy 19 -7 10 -12.1 67 67 ESE 7 11 30.33 1027 10 16.09344 0 0
10:55 am 10:55 Cloudy 20 -6.5 10 -12 65 65 ESE 5 7 30.3 1026 10 16.09344 0 0
11:15 am 11:15 Cloudy 21 -6.1 11 -11.5 66 66 ESE 5 7 30.3 1026 10 16.09344 0 0
11:35 am 11:35 Cloudy 21 -6 12 -11.1 68 68 E 6 9 30.3 1026 10 16.09344 0 0
11:55 am 11:55 Cloudy 22 -5.5 13 -10.7 67 67 ESE 5 7 30.27 1025 10 16.09344 0 0
12:15 pm 12:15 Cloudy 23 -5.1 13 -10.6 66 66 ESE 6 9 30.27 1025 10 16.09344 0 0
12:35 pm 12:35 Cloudy 23 -5 13 -10.6 65 65 SE 5 7 30.27 1025 10 16.09344 0 0
12:55 pm 12:55 Cloudy 24 -4.5 14 -10.1 65 65 SSE 7 11 30.27 1025 10 16.09344 0 0
1:15 pm 13:15 Cloudy 25 -4.1 15 -9.4 67 67 SSE 10 17 30.21 1023 10 16.09344 0 0
1:35 pm 13:35 Cloudy 25 -3.7 14 -9.8 63 63 SE 6 9 30.21 1023 10 16.09344 0 0
1:55 pm 13:55 Cloudy 26 -3.2 15 -9.3 63 63 SSE 7 11 30.21 1023 10 16.09344 0 0
2:15 pm 14:15 Cloudy 26 -3.2 16 -9 65 65 SE 9 15 30.18 1022 10 16.09344 0 0
2:35 pm 14:35 Cloudy 27 -2.9 16 -8.8 64 64 SSE 7 11 30.18 1022 10 16.09344 0 0
2:55 pm 14:55 Cloudy 27 -2.7 17 -8.6 64 64 SSE 6 9 30.18 1022 10 16.09344 0 0
3:15 pm 15:15 Cloudy 28 -2.5 17 -8.1 66 66 SSE 8 13 30.18 1022 10 16.09344 0 0
3:35 pm 15:35 Cloudy 28 -2.5 17 -8.2 65 65 SE 9 15 30.18 1022 10 16.09344 0 0
3:55 pm 15:55 Cloudy 28 -2.5 18 -7.8 67 67 SE 8 13 30.18 1022 10 16.09344 0 0
4:15 pm 16:15 Cloudy 28 -2.3 18 -7.7 67 67 SE 7 11 30.18 1022 10 16.09344 0 0
4:35 pm 16:35 Partly Cloudy 28 -2.5 19 -7.5 69 69 ESE 9 15 30.18 1022 10 16.09344 0 0
4:55 pm 16:55 Sunny 27 -2.7 19 -7.4 70 70 E 8 13 30.18 1022 10 16.09344 0 0
5:15 pm 17:15 Partly Cloudy 27 -2.7 19 -7.4 70 70 E 6 9 30.18 1022 10 16.09344 0 0
5:35 pm 17:35 Cloudy 27 -2.7 19 -7 73 73 ENE 6 9 30.21 1023 10 16.09344 0 0
5:55 pm 17:55 Cloudy 27 -2.6 19 -7 72 72 E 7 11 30.21 1023 10 16.09344 0 0
6:15 pm 18:15 Mostly Cloudy 27 -2.8 19 -7 73 73 E 7 11 30.21 1023 10 16.09344 0 0
6:35 pm 18:35 Mostly Cloudy 27 -3 20 -6.8 75 75 E 8 13 30.21 1023 10 16.09344 0 0
6:55 pm 18:55 Cloudy 27 -3 20 -6.8 75 75 E 8 13 30.21 1023 10 16.09344 0 0
7:15 pm 19:15 Cloudy 26 -3.1 20 -6.7 76 76 E 10 17 30.21 1023 10 16.09344 0 0
7:35 pm 19:35 Cloudy 26 -3.1 20 -6.7 76 76 E 10 17 30.21 1023 10 16.09344 0 0
7:55 pm 19:55 Cloudy 26 -3.1 20 -6.6 77 77 E 10 17 30.21 1023 10 16.09344 0 0
8:15 pm 20:15 Cloudy with Light Snow 26 -3.1 20 -6.6 77 77 ENE 9 15 30.21 1023 10 16.09344 0 0
8:35 pm 20:35 Cloudy with Light Snow 26 -3.6 21 -6 84 84 E 8 13 30.21 1023 2 3.218688 0 0
8:55 pm 20:55 Cloudy with Light Snow 25 -4 21 -5.9 87 87 E 12 19 30.21 1023 1.25 2.01168 0 0
9:15 pm 21:15 Cloudy with Light Snow 25 -4 22 -5.7 88 88 ENE 12 19 30.21 1023 2.5 4.02336 0 0
9:35 pm 21:35 Cloudy with Light Snow 25 -4 22 -5.6 89 89 ENE 10 17 30.21 1023 1.5 2.414016 0 0
9:55 pm 21:55 Cloudy with Light Snow 25 -4 22 -5.5 89 89 E 12 19 30.21 1023 1.25 2.01168 0.01 0.254
10:15 pm 22:15 Cloudy with Light Snow 25 -4 22 -5.5 89 89 ENE 15 24 30.18 1022 1.5 2.414016 0 0
10:35 pm 22:35 Cloudy with Mist and Fog 25 -4 22 -5.5 89 89 E 14 22 30.18 1022 5 8.04672 0 0
10:55 pm 22:55 Cloudy 25 -3.9 22 -5.5 89 89 E 9 15 30.21 1023 10 16.09344 0 0
11:15 pm 23:15 Cloudy 25 -3.8 22 -5.5 88 88 ENE 9 15 30.18 1022 10 16.09344 0 0
11:35 pm 23:35 Cloudy 25 -3.7 22 -5.5 87 87 E 12 19 30.18 1022 10 16.09344 0 0
11:55 pm 23:55 Cloudy 25 -3.7 22 -5.4 88 88 E 14 22 30.18 1022 10 16.09344 0 0

Powered by AerisWeather